West Mecca
DateTemperatureDew Point
06/21 - 09:15 PM92.7°51.7°
06/21 - 09:00 PM93.5°51.6°
06/21 - 08:45 PM93.8°51.7°
06/21 - 08:30 PM93.3°54.0°
06/21 - 08:15 PM92.6°56.6°
06/21 - 08:00 PM93.4°58.4°
06/21 - 07:45 PM92.8°61.3°
06/21 - 07:30 PM94.2°63.1°
06/21 - 07:15 PM95.9°60.8°
06/21 - 07:00 PM96.7°57.0°
06/21 - 06:45 PM97.6°57.3°
06/21 - 06:30 PM99.1°56.3°
06/21 - 06:15 PM100.5°55.2°
06/21 - 06:00 PM102.2°53.0°
06/21 - 05:45 PM103.3°59.6°
06/21 - 05:30 PM102.8°61.8°
06/21 - 05:15 PM103.2°58.6°
06/21 - 05:00 PM103.3°59.5°
06/21 - 04:45 PM104.7°57.2°
06/21 - 04:30 PM106.4°56.7°
06/21 - 04:15 PM106.5°54.5°
06/21 - 04:00 PM106.2°57.2°
06/21 - 03:45 PM107.1°53.6°
06/21 - 03:30 PM106.7°54.1°
06/21 - 03:15 PM106.1°51.5°
06/21 - 03:00 PM107.0°51.6°
06/21 - 02:45 PM106.9°54.3°
06/21 - 02:30 PM106.2°52.6°
06/21 - 02:15 PM106.4°51.6°
06/21 - 02:00 PM105.8°54.2°
06/21 - 01:45 PM106.2°52.7°
06/21 - 01:30 PM105.8°50.9°
06/21 - 01:15 PM105.4°52.0°
06/21 - 01:00 PM105.7°53.5°
06/21 - 12:45 PM105.2°52.7°
06/21 - 12:30 PM105.4°56.3°
06/21 - 12:15 PM105.0°54.0°
06/21 - 12:00 PM104.4°55.7°
06/21 - 11:45 AM103.5°46.9°
06/21 - 11:30 AM103.1°51.8°
06/21 - 11:15 AM102.5°51.2°
06/21 - 11:00 AM101.6°51.8°
06/21 - 10:45 AM100.3°51.2°
06/21 - 10:30 AM98.9°52.3°
06/21 - 10:15 AM97.6°51.8°
06/21 - 10:00 AM96.1°51.3°
06/21 - 09:45 AM94.9°51.0°
06/21 - 09:30 AM93.5°50.1°
06/21 - 09:15 AM92.4°50.0°
06/21 - 09:00 AM91.3°50.4°
06/21 - 08:45 AM90.6°51.3°
06/21 - 08:30 AM89.1°50.8°
06/21 - 08:15 AM87.7°48.7°
06/21 - 08:00 AM87.1°47.7°
06/21 - 07:45 AM85.6°48.9°
06/21 - 07:30 AM83.8°50.7°
06/21 - 07:15 AM82.8°49.7°
06/21 - 07:00 AM82.7°48.8°
06/21 - 06:45 AM81.5°48.4°
06/21 - 06:30 AM78.9°49.3°
06/21 - 06:15 AM77.0°49.6°
06/21 - 06:00 AM73.4°49.7°
06/21 - 05:45 AM70.0°52.0°
06/21 - 05:30 AM71.1°51.2°
06/21 - 05:15 AM73.6°49.0°
06/21 - 05:00 AM77.5°46.2°
06/21 - 04:45 AM78.8°45.2°
06/21 - 04:30 AM77.5°46.0°
06/21 - 04:15 AM78.3°45.8°
06/21 - 04:00 AM77.9°46.0°
06/21 - 03:45 AM77.5°47.7°
06/21 - 03:30 AM80.1°47.3°
06/21 - 03:15 AM80.1°46.4°
06/21 - 03:00 AM81.2°47.1°
06/21 - 02:45 AM81.5°47.1°
06/21 - 02:30 AM82.5°48.6°
06/21 - 02:15 AM84.3°48.4°
06/21 - 02:00 AM84.3°49.1°
06/21 - 01:45 AM84.3°49.2°
06/21 - 01:30 AM84.1°50.0°
06/21 - 01:15 AM83.7°51.0°
06/21 - 01:00 AM84.2°52.2°
06/21 - 12:45 AM84.9°53.2°
06/21 - 12:30 AM85.2°54.0°
06/21 - 12:15 AM85.5°53.9°
06/21 - 12:00 AM85.7°53.9°
06/20 - 11:45 PM86.2°53.7°
06/20 - 11:30 PM87.2°53.6°
06/20 - 11:15 PM87.0°53.9°
06/20 - 11:00 PM87.1°53.9°
06/20 - 10:45 PM87.7°53.4°
06/20 - 10:30 PM88.6°53.2°
06/20 - 10:15 PM88.6°53.1°
06/20 - 10:00 PM89.5°53.0°
06/20 - 09:45 PM90.3°52.9°
06/20 - 09:30 PM90.4°53.2°
06/20 - 09:15 PM90.6°53.0°
06/20 - 09:00 PM92.0°52.9°
06/20 - 08:45 PM92.6°53.1°
06/20 - 08:30 PM93.4°53.3°
06/20 - 08:15 PM94.3°53.6°
06/20 - 08:00 PM95.3°53.7°
06/20 - 07:45 PM96.3°54.0°
06/20 - 07:30 PM97.3°54.1°
06/20 - 07:15 PM98.1°54.3°
06/20 - 07:00 PM98.1°55.1°
06/20 - 06:45 PM95.8°60.0°
06/20 - 06:30 PM96.8°60.3°
06/20 - 06:15 PM97.1°62.9°
06/20 - 06:00 PM98.3°60.2°
06/20 - 05:45 PM99.7°58.6°
06/20 - 05:30 PM99.7°57.5°
06/20 - 05:15 PM100.0°60.0°
06/20 - 05:00 PM101.8°57.8°
06/20 - 04:45 PM101.8°58.1°
06/20 - 04:30 PM102.0°58.5°
06/20 - 04:15 PM102.4°59.5°
06/20 - 04:00 PM103.3°58.4°
06/20 - 03:45 PM103.8°58.3°
06/20 - 03:30 PM103.1°58.3°
06/20 - 03:15 PM103.8°57.1°
06/20 - 03:00 PM104.5°54.1°
06/20 - 02:45 PM103.7°55.9°
06/20 - 02:30 PM103.1°54.0°
06/20 - 02:15 PM103.4°56.0°
06/20 - 02:00 PM103.1°53.5°
06/20 - 01:45 PM102.5°54.5°
06/20 - 01:30 PM102.1°56.1°
06/20 - 01:15 PM101.5°52.6°
06/20 - 01:00 PM101.3°54.3°
06/20 - 12:45 PM100.6°55.7°
06/20 - 12:30 PM100.9°59.0°
06/20 - 12:15 PM100.5°58.5°
06/20 - 12:00 PM99.6°63.0°
06/20 - 11:45 AM99.2°63.8°
06/20 - 11:30 AM99.4°63.6°
06/20 - 11:15 AM100.5°56.9°
06/20 - 11:00 AM98.8°53.8°
06/20 - 10:45 AM97.7°53.4°
06/20 - 10:30 AM96.4°53.4°
06/20 - 10:15 AM95.3°54.1°
06/20 - 10:00 AM94.2°54.2°
06/20 - 09:45 AM93.1°54.2°
06/20 - 09:30 AM91.9°53.8°
06/20 - 09:15 AM90.5°54.0°
06/20 - 09:00 AM89.4°54.2°
06/20 - 08:45 AM88.1°53.7°
06/20 - 08:30 AM87.0°53.3°
06/20 - 08:15 AM86.2°53.9°
06/20 - 08:00 AM84.3°54.9°
06/20 - 07:45 AM82.6°55.7°
06/20 - 07:30 AM81.5°56.6°
06/20 - 07:15 AM80.5°56.2°
06/20 - 07:00 AM79.5°55.4°
06/20 - 06:45 AM78.2°54.8°
06/20 - 06:30 AM76.8°54.6°
06/20 - 06:15 AM75.6°53.9°
06/20 - 06:00 AM74.9°53.7°
06/20 - 05:45 AM74.4°53.9°
06/20 - 05:30 AM74.4°53.8°
06/20 - 05:15 AM76.5°54.0°
06/20 - 05:00 AM78.2°53.2°
06/20 - 04:45 AM77.2°53.6°
06/20 - 04:30 AM76.5°53.8°
06/20 - 04:15 AM74.0°54.5°
06/20 - 04:00 AM73.9°55.5°
06/20 - 03:45 AM72.9°56.6°
06/20 - 03:30 AM73.6°56.6°
06/20 - 03:15 AM76.2°55.3°
06/20 - 03:00 AM76.6°55.0°
06/20 - 02:45 AM77.0°54.9°
06/20 - 02:30 AM77.9°54.7°
06/20 - 02:15 AM78.8°54.4°
06/20 - 02:00 AM79.9°54.3°
06/20 - 01:45 AM80.6°54.3°
06/20 - 01:30 AM80.9°54.2°
06/20 - 01:15 AM81.1°54.0°
06/20 - 01:00 AM81.5°53.9°
06/20 - 12:45 AM81.7°53.9°
06/20 - 12:30 AM82.0°54.2°
06/20 - 12:15 AM82.5°54.5°
06/20 - 12:00 AM83.4°54.5°
06/19 - 11:45 PM84.1°54.1°
06/19 - 11:30 PM84.3°53.9°
06/19 - 11:15 PM84.9°53.9°
06/19 - 11:00 PM85.4°53.6°
06/19 - 10:45 PM86.0°53.5°
06/19 - 10:30 PM86.2°53.2°
06/19 - 10:15 PM86.6°53.3°